Helicity
90 73 109 172 119 134 142 145 162 51 94 156 267 165 82 -51 -99 21 193 167 49 4 115 67 96 117 194 211 233 165 186 124 58 25 -10 -16 -41 -19 38 38 61 -21 13 99
47 46 96 107 61 121 45 113 10 36 35 146 189 138 23 -14 -98 3 168 213 163 6 139 69 38 212 262 292 232 179 180 124 69 25 -21 -35 -68 -22 52 27 64 36 -7 19
4 81 40 33 2 36 -7 56 -1 -63 -29 4 111 109 63 20 54 222 116 207 209 72 213 77 40 234 270 268 259 182 180 129 70 29 -26 -30 -33 -18 127 95 -36 -74 -5 15
26 122 78 59 18 -11 -4 8 -60 -76 -30 11 126 101 -22 21 44 183 101 242 171 124 129 151 119 221 291 260 247 188 171 131 69 32 -23 -13 -22 -12 75 39 23 -40 -17 14
3 25 6 17 -1 -7 -1 -4 -50 -75 67 -11 29 56 -4 -2 51 148 208 240 177 133 78 279 160 241 296 281 237 209 182 116 68 26 -10 -28 1 4 88 131 89 18 -51 6
-16 26 5 30 26 31 10 -14 -42 -22 -36 43 8 -45 -19 63 96 146 76 169 212 155 47 206 159 182 270 284 235 190 198 122 106 71 28 9 15 8 70 80 64 14 15 109
21 35 -14 -16 -11 4 14 -2 44 35 -46 129 105 4 136 -2 38 124 99 40 211 193 111 94 154 154 266 285 270 198 212 196 121 106 66 41 33 3 12 86 71 87 56 75
19 127 31 -34 37 14 -6 -23 28 34 40 212 2 -24 16 49 83 84 67 42 168 195 190 93 151 201 207 363 407 352 294 230 159 157 118 76 43 27 15 42 71 163 66 98
28 22 17 19 95 61 20 31 30 -0 -12 37 -8 -40 39 41 54 56 115 80 164 159 191 154 132 194 187 324 371 437 343 270 210 189 152 109 83 65 44 34 39 142 109 104
-1 66 31 -9 66 36 61 23 -3 -6 -19 8 43 100 164 11 33 25 57 50 61 46 173 140 119 149 162 228 280 405 383 344 295 212 178 135 126 79 41 28 32 74 129 202
49 38 9 -6 19 43 23 45 63 19 19 -47 10 86 196 85 -49 22 28 53 39 61 43 159 122 79 135 184 226 324 384 354 303 260 202 153 146 115 86 83 62 69 174 291
91 63 60 56 22 25 51 -4 45 67 51 18 23 29 24 2 23 128 79 29 19 37 40 70 118 190 118 122 226 306 362 389 361 318 239 190 166 149 122 103 75 116 227 316
74 79 70 64 48 13 29 63 46 33 46 58 68 122 141 116 204 217 173 148 42 16 26 66 84 72 188 134 148 300 333 370 362 338 315 246 198 184 169 133 119 144 274 340
38 63 36 37 13 13 -15 -11 92 41 22 -3 -10 258 190 121 170 166 150 132 103 61 45 65 109 83 103 166 228 222 302 341 356 357 351 320 274 238 207 162 139 172 288 370
61 17 35 66 28 -24 19 54 67 58 -3 33 -19 339 226 103 156 138 155 108 65 60 29 -9 41 57 66 100 146 187 231 326 386 387 381 375 330 257 228 191 178 194 310 428
38 37 12 54 -12 70 -3 41 46 8 75 8 107 257 273 292 140 203 131 136 136 162 151 138 74 27 73 113 135 142 191 246 330 376 391 395 369 282 215 171 171 272 410 513
76 37 63 17 61 31 59 115 38 11 -48 -33 34 188 208 252 198 161 147 110 104 92 104 117 152 107 36 86 138 125 131 184 268 359 391 364 322 263 236 269 350 461 566 500
151 7 21 40 40 68 50 79 -0 -6 -10 177 137 153 186 310 308 246 127 102 83 68 90 119 166 210 152 105 81 51 157 210 278 281 327 311 316 361 375 387 466 467 490 440
79 104 131 116 16 35 34 -85 -17 10 67 51 257 328 340 269 360 284 104 64 43 59 77 74 80 139 180 180 137 29 198 215 207 217 233 353 432 430 414 475 432 409 464 385
64 8 69 147 113 -4 80 94 132 70 37 13 -82 259 460 511 560 644 494 256 61 51 42 39 52 58 83 192 82 76 180 183 150 169 196 246 308 371 383 426 456 371 337 259
83 82 78 53 16 45 97 122 79 98 155 70 -107 35 232 347 245 240 213 230 4 36 34 42 65 82 97 147 149 211 215 229 164 172 200 233 247 289 323 392 393 352 272 178
23 35 83 69 125 91 201 104 87 111 220 134 4 -78 -17 116 360 -138 -23 -67 -2 55 57 60 43 53 94 61 68 124 147 114 118 176 220 209 208 232 282 292 315 269 183 220
7 27 76 134 126 124 141 104 16 -30 17 118 53 -115 -153 13 60 -6 96 -4 30 42 79 73 68 60 93 98 47 63 61 97 124 151 205 211 247 251 239 257 236 216 217 230
46 128 109 140 107 77 78 42 61 53 -50 158 180 -16 -52 -15 47 72 84 82 100 53 110 139 100 63 75 65 66 60 52 42 55 145 172 163 178 155 147 146 164 166 189 222
39 106 48 69 70 30 6 10 -1 110 187 97 59 171 51 53 65 70 53 57 105 112 132 130 92 90 60 50 42 36 33 60 90 83 82 94 89 85 96 142 141 121 148 162
78 57 62 56 35 -18 -14 84 70 45 148 281 61 41 24 44 40 58 78 27 46 89 78 141 121 87 50 35 21 20 23 24 40 18 12 61 74 90 118 109 129 215 185 131
Wind_Speed
42 38 33 27 27 25 23 22 21 38 33 38 39 39 29 41 47 57 53 48 50 51 53 50 47 44 46 44 42 40 36 44 43 41 39 41 41 37 34 25 28 30 30 27
43 44 43 34 21 24 21 21 21 24 38 33 29 30 33 37 44 55 51 48 47 50 47 49 51 45 47 47 43 41 38 43 38 35 36 41 40 33 25 27 28 15 32 28
42 51 51 46 39 32 29 25 17 19 25 19 28 26 27 31 38 46 45 46 45 48 46 50 54 52 47 46 45 40 38 38 37 35 39 42 31 23 20 24 35 33 32 29
51 50 52 51 47 44 40 35 26 29 39 36 26 22 24 34 41 36 38 43 44 47 45 51 52 51 49 48 45 43 40 38 37 35 41 39 29 27 25 23 32 33 30 28
55 54 55 54 51 52 47 43 41 33 32 44 43 39 37 39 39 35 33 44 46 49 48 45 45 46 47 47 46 44 39 37 35 36 39 39 32 28 24 27 34 34 32 29
64 61 59 51 50 49 51 49 48 44 48 43 41 35 35 38 40 36 38 46 54 47 47 44 46 39 48 44 42 41 39 38 37 36 39 41 38 33 23 30 32 31 33 33
60 60 60 60 53 52 52 50 47 42 45 25 26 23 39 33 31 33 42 44 44 53 46 43 44 42 36 47 43 44 42 39 41 39 40 43 41 34 32 26 28 28 30 28
62 65 64 63 43 47 56 51 52 50 44 4 3 24 26 33 35 39 44 40 38 44 46 44 47 45 40 47 44 45 42 42 44 40 41 42 41 38 28 27 27 26 30 27
52 62 57 47 32 27 53 56 53 51 58 44 28 34 34 28 30 33 38 33 35 38 46 47 47 45 46 40 47 43 44 41 41 42 36 37 37 37 35 29 25 23 24 26
40 58 56 40 26 39 41 51 53 47 41 33 25 27 20 20 26 25 30 33 33 39 43 52 48 41 43 41 43 37 41 40 38 39 37 37 35 36 37 31 30 29 24 24
50 51 56 53 38 38 50 53 54 57 50 49 35 26 24 48 22 24 24 30 35 34 30 40 48 44 42 43 42 40 36 36 37 34 33 32 33 32 34 34 30 27 20 20
42 42 54 62 62 44 37 47 43 47 57 56 47 41 7 20 29 29 31 26 27 30 29 35 36 39 45 45 40 41 42 39 39 37 37 36 33 32 32 35 34 26 15 16
44 43 51 57 57 54 49 50 44 53 54 61 53 30 8 12 15 22 27 26 24 23 27 25 33 32 34 42 42 40 41 42 40 41 40 38 34 33 35 33 28 21 11 8
44 53 55 59 59 61 56 56 41 51 64 62 56 17 12 7 15 21 22 20 19 19 17 17 12 23 23 32 34 40 38 42 44 45 42 39 36 32 27 21 18 14 7 4
35 47 59 65 61 58 53 52 47 58 50 61 55 8 2 6 11 18 19 19 18 15 16 16 13 12 13 17 23 31 37 37 37 37 35 33 26 19 15 19 17 11 5 18
45 47 53 61 58 54 49 45 47 46 48 53 13 16 7 6 11 15 16 17 22 22 23 25 25 11 6 10 9 17 26 29 31 30 28 17 16 17 19 17 13 8 6 7
58 54 52 59 61 56 45 52 48 47 44 52 37 23 8 7 8 8 11 16 20 26 28 29 31 28 5 5 8 11 15 17 18 14 10 13 14 19 14 6 3 5 2 2
56 48 42 48 53 62 49 49 44 41 44 47 22 3 14 8 1 8 12 16 20 23 29 31 31 33 29 29 8 6 10 9 7 9 11 10 11 12 8 3 3 1 5 5
28 33 43 50 48 54 57 52 47 43 41 37 25 26 30 24 2 9 16 21 23 26 31 34 34 34 35 40 43 31 7 5 5 8 7 10 10 9 9 7 3 8 6 10
27 31 31 42 47 56 49 51 52 48 42 34 28 30 29 20 22 36 38 33 31 28 28 33 35 37 40 43 26 20 10 9 11 11 9 11 12 12 9 6 7 8 8 18
31 38 58 51 54 51 60 59 49 53 55 57 40 35 32 27 40 36 25 36 35 31 26 32 36 37 39 37 29 21 18 20 21 17 15 12 10 6 4 8 11 16 22 22
28 28 49 50 41 52 53 50 46 53 65 62 51 40 48 44 48 58 38 41 13 25 29 32 37 39 39 36 30 27 25 24 23 23 16 12 9 10 11 12 14 18 16 18
27 25 41 50 40 41 52 50 36 40 54 44 41 36 33 37 40 11 48 33 35 37 29 29 35 39 38 36 32 27 25 25 23 19 17 13 14 16 16 16 17 16 14 18
31 29 40 47 36 42 44 47 39 48 60 59 45 41 30 8 34 43 43 42 44 32 29 29 32 36 34 32 30 27 25 22 20 18 14 16 17 18 18 19 18 19 20 17
27 31 33 39 40 42 32 27 25 32 39 40 54 56 58 49 43 42 42 45 47 46 26 28 31 28 26 27 29 27 24 21 18 15 15 17 19 20 19 22 26 22 15 11
16 29 33 37 29 35 46 11 13 12 16 40 37 11 34 56 49 51 51 43 44 35 20 20 23 25 30 29 30 28 25 23 20 18 20 21 19 21 22 25 27 31 26 11
Wind_Direction
208 197 188 209 210 179 216 199 169 63 100 57 74 90 127 155 169 187 154 145 151 149 141 140 137 131 132 130 126 129 119 137 132 130 131 150 156 129 122 38 334 280 243 88
221 200 206 222 169 175 183 192 212 167 42 45 81 91 108 141 162 171 156 151 146 151 139 142 143 130 136 136 136 133 126 134 129 123 127 145 141 127 46 32 61 33 242 228
201 223 238 237 215 225 217 193 179 231 222 137 113 92 139 147 154 146 160 154 147 149 141 145 148 141 139 139 139 132 130 132 132 128 136 149 133 107 57 40 57 86 233 211
232 232 246 254 247 253 244 237 253 262 269 259 16 37 171 153 155 138 148 152 154 150 144 148 147 146 146 147 143 139 136 137 139 136 148 154 139 128 40 196 148 146 179 177
254 253 256 254 262 247 242 239 264 263 249 319 332 312 224 152 153 149 140 152 156 156 151 147 147 148 150 148 147 145 138 139 139 145 153 160 150 139 102 127 146 141 160 156
252 253 255 270 278 278 263 252 268 269 296 272 308 310 243 143 159 152 153 155 159 152 150 147 150 141 152 150 149 147 144 146 147 150 160 166 163 161 96 97 112 125 136 123
252 242 245 254 280 273 249 257 260 307 347 153 228 233 200 174 124 142 146 151 145 151 147 146 150 149 139 153 153 155 153 150 153 155 161 172 173 161 156 99 111 113 109 110
267 260 255 261 284 283 253 271 269 284 303 257 211 117 154 89 53 105 127 132 134 144 147 147 155 154 148 153 153 158 158 159 159 156 164 170 174 172 146 138 123 99 131 105
282 263 285 297 288 296 279 263 270 282 288 343 74 51 61 57 56 56 96 92 123 133 148 150 152 155 158 152 159 160 162 162 162 165 160 163 167 172 170 151 141 125 138 137
292 277 280 310 318 294 300 285 285 286 297 321 350 358 7 52 76 71 86 87 99 135 140 153 150 147 158 159 162 156 163 164 165 166 167 169 168 171 172 164 164 155 146 129
291 289 283 294 309 304 291 286 283 277 284 290 317 321 307 282 36 82 87 89 96 116 119 141 152 154 154 156 159 161 160 161 164 163 164 167 167 166 171 173 169 165 141 135
314 301 285 281 284 305 313 296 290 284 275 280 299 308 2 123 59 50 82 80 88 102 117 132 137 148 156 158 152 157 161 162 164 164 167 169 167 169 174 180 180 165 143 150
314 302 297 285 286 293 304 298 296 286 288 273 285 304 30 53 32 37 56 46 64 75 105 114 136 136 145 161 162 159 163 167 165 167 169 169 167 171 178 180 177 168 154 164
314 290 284 281 282 296 305 314 280 289 274 275 287 283 274 345 344 352 7 21 33 34 44 42 129 139 134 149 158 166 166 169 171 172 173 173 172 171 169 168 172 173 161 34
322 308 278 271 286 302 304 291 307 269 288 277 287 217 204 333 339 344 356 353 354 7 3 344 15 23 146 140 149 159 169 170 171 173 173 175 170 160 154 168 174 170 122 41
318 311 294 283 291 304 300 305 289 308 307 292 283 252 282 321 346 355 333 351 342 340 343 345 335 343 81 154 145 156 164 171 173 176 179 171 166 165 170 169 166 160 146 32
301 312 307 290 287 295 293 302 289 292 321 304 287 271 232 269 291 319 327 350 343 335 326 322 329 338 324 121 141 168 172 170 178 191 202 185 179 178 170 150 150 172 12 49
303 316 318 307 293 280 281 303 291 295 318 327 317 274 136 213 324 5 359 322 336 350 339 333 328 329 342 327 290 203 173 177 231 248 247 223 196 182 186 230 318 260 313 0
325 330 311 299 292 285 282 292 293 293 300 339 336 308 295 280 185 347 337 336 332 333 338 338 336 332 327 319 297 310 203 229 295 295 258 248 240 248 272 288 300 336 354 359
2 344 335 310 295 280 290 301 293 283 278 306 326 315 305 308 259 275 292 315 346 358 355 352 339 336 331 325 330 337 318 296 306 318 316 289 267 261 274 286 306 331 341 343
335 313 291 296 290 286 289 292 290 268 269 282 289 296 309 301 288 289 333 324 314 327 357 358 3 352 339 329 338 328 321 309 307 318 320 313 289 267 280 309 317 325 335 345
350 338 303 299 299 286 310 290 281 282 293 279 279 286 284 289 318 286 265 273 37 358 351 349 348 337 334 337 338 326 315 312 309 304 311 318 313 299 301 314 325 324 336 350
350 347 318 293 302 313 298 289 300 299 301 292 285 287 303 282 282 271 239 316 327 330 343 349 347 342 337 333 333 333 329 319 319 313 307 316 320 317 314 318 327 335 348 353
353 349 334 300 310 303 303 294 307 287 289 274 279 300 304 104 293 304 318 335 330 339 351 353 349 345 346 344 341 339 336 333 332 328 322 320 317 323 325 326 327 332 334 342
358 355 335 314 323 301 330 335 307 311 295 240 260 281 292 312 326 323 331 323 322 321 331 340 343 345 344 352 348 348 346 345 345 347 336 329 329 328 327 325 322 326 330 339
9 352 352 337 339 303 299 345 83 33 353 219 225 208 326 300 316 316 319 322 321 329 335 345 345 343 338 344 344 342 344 345 348 346 333 328 331 330 329 328 323 326 329 327